Time,TemperatureF,DewpointF,PressureIn,WindDirection,WindDirectionDegrees,WindSpeedMPH,WindSpeedGustMPH,Humidity,HourlyPrecipIn,Conditions,Clouds,dailyrainin,SolarRadiationWatts/m^2,SoftwareType,DateUTC
2013-07-30 00:03:00,63.0,60.0,-100.00,ENE,73,2.0,3.0,90,0.00,,,0.00,0.000000,,2013-07-30 05:03:00,
2013-07-30 00:33:00,63.0,59.0,-100.00,ESE,115,3.0,5.0,88,0.00,,,0.00,0.000000,,2013-07-30 05:33:00,
2013-07-30 00:45:00,63.0,59.0,-100.00,ESE,115,3.0,5.0,88,0.00,,,0.00,0.000000,,2013-07-30 05:45:00,
2013-07-30 00:53:00,63.0,59.0,-100.00,ESE,115,3.0,5.0,88,0.00,,,0.00,0.000000,,2013-07-30 05:53:00,
2013-07-30 01:03:00,63.0,59.0,-100.00,ESE,115,3.0,5.0,88,0.00,,,0.00,0.000000,,2013-07-30 06:03:00,
2013-07-30 01:33:00,62.0,59.0,-100.00,ENE,62,0.0,5.0,91,0.00,,,0.00,0.000000,,2013-07-30 06:33:00,
2013-07-30 01:43:00,62.0,59.0,-100.00,ENE,62,0.0,5.0,91,0.00,,,0.00,0.000000,,2013-07-30 06:43:00,
2013-07-30 01:53:00,62.0,59.0,-100.00,ENE,62,0.0,5.0,91,0.00,,,0.00,0.000000,,2013-07-30 06:53:00,
2013-07-30 02:03:00,62.0,59.0,-100.00,ENE,62,0.0,5.0,91,0.00,,,0.00,0.000000,,2013-07-30 07:03:00,
2013-07-30 02:33:00,64.0,57.0,-100.00,WSW,251,4.0,12.0,78,0.00,,,0.00,0.000000,,2013-07-30 07:33:00,
2013-07-30 02:43:00,64.0,57.0,-100.00,WSW,251,4.0,12.0,78,0.00,,,0.00,0.000000,,2013-07-30 07:43:00,
2013-07-30 02:53:00,64.0,57.0,-100.00,WSW,251,4.0,12.0,78,0.00,,,0.00,0.000000,,2013-07-30 07:53:00,
2013-07-30 03:03:00,64.0,57.0,-100.00,WSW,251,4.0,12.0,78,0.00,,,0.00,0.000000,,2013-07-30 08:03:00,
2013-07-30 03:33:00,64.0,57.0,-100.00,SSW,197,5.0,7.0,78,0.00,,,0.00,0.000000,,2013-07-30 08:33:00,
2013-07-30 03:43:00,64.0,57.0,-100.00,SSW,197,5.0,7.0,78,0.00,,,0.00,0.000000,,2013-07-30 08:43:00,
2013-07-30 03:53:00,64.0,57.0,-100.00,SSW,197,5.0,7.0,78,0.00,,,0.00,0.000000,,2013-07-30 08:53:00,
2013-07-30 04:03:00,64.0,57.0,-100.00,SSW,197,5.0,7.0,78,0.00,,,0.00,0.000000,,2013-07-30 09:03:00,
2013-07-30 04:33:00,63.0,56.0,-100.00,SSW,204,8.0,11.0,78,0.00,,,0.00,0.000000,,2013-07-30 09:33:00,
2013-07-30 04:43:00,63.0,56.0,-100.00,SSW,204,8.0,11.0,78,0.00,,,0.00,0.000000,,2013-07-30 09:43:00,
2013-07-30 04:53:00,63.0,56.0,-100.00,SSW,204,8.0,11.0,78,0.00,,,0.00,0.000000,,2013-07-30 09:53:00,
2013-07-30 05:03:00,63.0,56.0,-100.00,SSW,204,8.0,11.0,78,0.00,,,0.00,0.000000,,2013-07-30 10:03:00,
2013-07-30 05:33:00,62.0,56.0,-100.00,South,172,5.0,10.0,81,0.00,,,0.00,0.000000,,2013-07-30 10:33:00,
2013-07-30 05:44:00,62.0,56.0,-100.00,South,172,5.0,10.0,81,0.00,,,0.00,0.000000,,2013-07-30 10:44:00,
2013-07-30 05:52:00,62.0,56.0,-100.00,South,172,5.0,10.0,81,0.00,,,0.00,0.000000,,2013-07-30 10:52:00,
2013-07-30 06:02:00,62.0,56.0,-100.00,South,172,5.0,10.0,81,0.00,,,0.00,0.000000,,2013-07-30 11:02:00,
2013-07-30 06:33:00,62.0,56.0,-100.00,South,176,6.0,8.0,82,0.00,,,0.00,0.000000,,2013-07-30 11:33:00,
2013-07-30 06:43:00,62.0,56.0,-100.00,South,176,6.0,8.0,82,0.00,,,0.00,0.000000,,2013-07-30 11:43:00,
2013-07-30 06:53:00,62.0,56.0,-100.00,South,176,6.0,8.0,82,0.00,,,0.00,0.000000,,2013-07-30 11:53:00,
2013-07-30 07:33:00,61.0,57.0,-100.00,SSE,161,5.0,7.0,86,0.00,,,0.00,11.000000,,2013-07-30 12:33:00,
2013-07-30 07:42:00,61.0,57.0,-100.00,SSE,161,5.0,7.0,86,0.00,,,0.00,11.000000,,2013-07-30 12:42:00,
2013-07-30 07:53:00,61.0,57.0,-100.00,SSE,161,5.0,7.0,86,0.00,,,0.00,11.000000,,2013-07-30 12:53:00,
2013-07-30 08:02:00,61.0,57.0,-100.00,SSE,161,5.0,7.0,86,0.00,,,0.00,11.000000,,2013-07-30 13:02:00,
2013-07-30 08:33:00,62.0,58.0,-100.00,SE,144,4.0,7.0,86,0.00,,,0.00,50.000000,,2013-07-30 13:33:00,
2013-07-30 08:43:00,62.0,58.0,-100.00,SE,144,4.0,7.0,86,0.00,,,0.00,50.000000,,2013-07-30 13:43:00,
2013-07-30 08:52:00,62.0,58.0,-100.00,SE,144,4.0,7.0,86,0.00,,,0.00,50.000000,,2013-07-30 13:52:00,
2013-07-30 09:02:00,62.0,58.0,-100.00,SE,144,4.0,7.0,86,0.00,,,0.00,50.000000,,2013-07-30 14:02:00,
2013-07-30 09:33:00,63.0,58.0,-100.00,SSE,155,6.0,10.0,85,0.00,,,0.00,115.000000,,2013-07-30 14:33:00,
2013-07-30 09:43:00,63.0,58.0,-100.00,SSE,155,6.0,10.0,85,0.00,,,0.00,115.000000,,2013-07-30 14:43:00,
2013-07-30 09:53:00,63.0,58.0,-100.00,SSE,155,6.0,10.0,85,0.00,,,0.00,115.000000,,2013-07-30 14:53:00,
2013-07-30 10:02:00,63.0,58.0,-100.00,SSE,155,6.0,10.0,85,0.00,,,0.00,115.000000,,2013-07-30 15:02:00,
2013-07-30 10:33:00,64.0,59.0,-100.00,SSE,166,6.0,11.0,84,0.00,,,0.00,135.000000,,2013-07-30 15:33:00,
2013-07-30 10:43:00,64.0,59.0,-100.00,SSE,166,6.0,11.0,84,0.00,,,0.00,135.000000,,2013-07-30 15:43:00,
2013-07-30 10:53:00,64.0,59.0,-100.00,SSE,166,6.0,11.0,84,0.00,,,0.00,135.000000,,2013-07-30 15:53:00,
2013-07-30 11:02:00,64.0,59.0,-100.00,SSE,166,6.0,11.0,84,0.00,,,0.00,135.000000,,2013-07-30 16:02:00,
2013-07-30 11:33:00,64.0,59.0,-100.00,South,170,7.0,9.0,83,0.00,,,0.00,122.000000,,2013-07-30 16:33:00,
2013-07-30 11:44:00,64.0,59.0,-100.00,South,170,7.0,9.0,83,0.00,,,0.00,122.000000,,2013-07-30 16:44:00,
2013-07-30 11:52:00,64.0,59.0,-100.00,South,170,7.0,9.0,83,0.00,,,0.00,122.000000,,2013-07-30 16:52:00,
2013-07-30 12:02:00,64.0,59.0,-100.00,South,170,7.0,9.0,83,0.00,,,0.00,122.000000,,2013-07-30 17:02:00,
2013-07-30 12:32:00,64.0,60.0,-100.00,SSE,164,5.0,9.0,88,0.00,,,0.00,129.000000,,2013-07-30 17:32:00,
2013-07-30 12:43:00,64.0,60.0,-100.00,SSE,164,5.0,9.0,88,0.00,,,0.00,129.000000,,2013-07-30 17:43:00,
2013-07-30 12:54:00,64.0,60.0,-100.00,SSE,164,5.0,9.0,88,0.00,,,0.00,129.000000,,2013-07-30 17:54:00,
2013-07-30 13:03:00,64.0,60.0,-100.00,SSE,164,5.0,9.0,88,0.00,,,0.00,129.000000,,2013-07-30 18:03:00,
2013-07-30 13:32:00,66.0,61.0,-100.00,South,176,6.0,10.0,84,0.00,,,0.00,226.000000,,2013-07-30 18:32:00,
2013-07-30 13:43:00,66.0,61.0,-100.00,South,176,6.0,10.0,84,0.00,,,0.00,226.000000,,2013-07-30 18:43:00,
2013-07-30 13:52:00,66.0,61.0,-100.00,South,176,6.0,10.0,84,0.00,,,0.00,226.000000,,2013-07-30 18:52:00,
2013-07-30 14:03:00,66.0,61.0,-100.00,South,176,6.0,10.0,84,0.00,,,0.00,226.000000,,2013-07-30 19:03:00,
2013-07-30 14:33:00,69.0,61.0,-100.00,WSW,245,4.0,9.0,77,0.00,,,0.00,283.000000,,2013-07-30 19:33:00,
2013-07-30 14:44:00,69.0,61.0,-100.00,WSW,245,4.0,9.0,77,0.00,,,0.00,283.000000,,2013-07-30 19:44:00,
2013-07-30 14:52:00,69.0,61.0,-100.00,WSW,245,4.0,9.0,77,0.00,,,0.00,283.000000,,2013-07-30 19:52:00,
2013-07-30 15:02:00,69.0,61.0,-100.00,WSW,245,4.0,9.0,77,0.00,,,0.00,283.000000,,2013-07-30 20:02:00,
2013-07-30 15:33:00,69.0,61.0,-100.00,West,273,4.0,10.0,77,0.00,,,0.00,259.000000,,2013-07-30 20:33:00,
2013-07-30 15:43:00,69.0,61.0,-100.00,West,273,4.0,10.0,77,0.00,,,0.00,259.000000,,2013-07-30 20:43:00,
2013-07-30 15:52:00,69.0,61.0,-100.00,West,273,4.0,10.0,77,0.00,,,0.00,259.000000,,2013-07-30 20:52:00,
2013-07-30 16:02:00,69.0,61.0,-100.00,West,273,4.0,10.0,77,0.00,,,0.00,259.000000,,2013-07-30 21:02:00,
2013-07-30 16:32:00,70.0,61.0,-100.00,SW,217,4.0,7.0,73,0.00,,,0.00,295.000000,,2013-07-30 21:32:00,
2013-07-30 16:42:00,70.0,61.0,-100.00,SW,217,4.0,7.0,73,0.00,,,0.00,295.000000,,2013-07-30 21:42:00,
2013-07-30 16:53:00,70.0,61.0,-100.00,SW,217,4.0,7.0,73,0.00,,,0.00,295.000000,,2013-07-30 21:53:00,
2013-07-30 17:02:00,70.0,61.0,-100.00,SW,217,4.0,7.0,73,0.00,,,0.00,295.000000,,2013-07-30 22:02:00,
2013-07-30 17:32:00,71.0,61.0,-100.00,SSW,212,3.0,6.0,70,0.00,,,0.00,210.000000,,2013-07-30 22:32:00,
2013-07-30 17:43:00,71.0,61.0,-100.00,SSW,212,3.0,6.0,70,0.00,,,0.00,210.000000,,2013-07-30 22:43:00,
2013-07-30 17:53:00,71.0,61.0,-100.00,SSW,212,3.0,6.0,70,0.00,,,0.00,210.000000,,2013-07-30 22:53:00,
2013-07-30 18:02:00,71.0,61.0,-100.00,SSW,212,3.0,6.0,70,0.00,,,0.00,210.000000,,2013-07-30 23:02:00,
2013-07-30 18:32:00,71.0,62.0,-100.00,West,263,4.0,7.0,72,0.00,,,0.00,241.000000,,2013-07-30 23:32:00,
2013-07-30 18:42:00,71.0,62.0,-100.00,West,263,4.0,7.0,72,0.00,,,0.00,241.000000,,2013-07-30 23:42:00,
2013-07-30 18:53:00,71.0,62.0,-100.00,West,263,4.0,7.0,72,0.00,,,0.00,241.000000,,2013-07-30 23:53:00,
2013-07-30 19:02:00,71.0,62.0,-100.00,West,263,4.0,7.0,72,0.00,,,0.00,241.000000,,2013-07-31 00:02:00,
2013-07-30 19:32:00,71.0,61.0,-100.00,SW,231,5.0,9.0,71,0.00,,,0.00,198.000000,,2013-07-31 00:32:00,
2013-07-30 19:43:00,71.0,61.0,-100.00,SW,231,5.0,9.0,71,0.00,,,0.00,198.000000,,2013-07-31 00:43:00,
2013-07-30 19:53:00,71.0,61.0,-100.00,SW,231,5.0,9.0,71,0.00,,,0.00,198.000000,,2013-07-31 00:53:00,
2013-07-30 20:02:00,71.0,61.0,-100.00,SW,231,5.0,9.0,71,0.00,,,0.00,198.000000,,2013-07-31 01:02:00,
2013-07-30 20:32:00,68.0,62.0,-100.00,SSE,161,4.0,8.0,80,0.00,,,0.00,69.000000,,2013-07-31 01:32:00,
2013-07-30 20:43:00,68.0,62.0,-100.00,SSE,161,4.0,8.0,80,0.00,,,0.00,69.000000,,2013-07-31 01:43:00,
2013-07-30 20:52:00,68.0,62.0,-100.00,SSE,161,4.0,8.0,80,0.00,,,0.00,69.000000,,2013-07-31 01:52:00,
2013-07-30 21:02:00,68.0,62.0,-100.00,SSE,161,4.0,8.0,80,0.00,,,0.00,69.000000,,2013-07-31 02:02:00,
2013-07-30 21:32:00,66.0,62.0,-100.00,SSE,147,3.0,5.0,88,0.00,,,0.00,5.000000,,2013-07-31 02:32:00,
2013-07-30 21:43:00,66.0,62.0,-100.00,SSE,147,3.0,5.0,88,0.00,,,0.00,5.000000,,2013-07-31 02:43:00,
2013-07-30 21:52:00,66.0,62.0,-100.00,SSE,147,3.0,5.0,88,0.00,,,0.00,5.000000,,2013-07-31 02:52:00,
2013-07-30 22:02:00,66.0,62.0,-100.00,SSE,147,3.0,5.0,88,0.00,,,0.00,5.000000,,2013-07-31 03:02:00,
2013-07-30 22:32:00,64.0,62.0,-100.00,South,178,4.0,5.0,92,0.00,,,0.00,0.000000,,2013-07-31 03:32:00,
2013-07-30 22:42:00,64.0,62.0,-100.00,South,178,4.0,5.0,92,0.00,,,0.00,0.000000,,2013-07-31 03:42:00,
2013-07-30 22:52:00,64.0,62.0,-100.00,South,178,4.0,5.0,92,0.00,,,0.00,0.000000,,2013-07-31 03:52:00,
2013-07-30 23:02:00,64.0,62.0,-100.00,South,178,4.0,5.0,92,0.00,,,0.00,0.000000,,2013-07-31 04:02:00,
2013-07-30 23:32:00,61.0,60.0,-100.00,East,87,1.0,4.0,96,0.00,,,0.00,0.000000,,2013-07-31 04:32:00,
2013-07-30 23:42:00,61.0,60.0,-100.00,East,87,1.0,4.0,96,0.00,,,0.00,0.000000,,2013-07-31 04:42:00,
2013-07-30 23:52:00,61.0,60.0,-100.00,East,87,1.0,4.0,96,0.00,,,0.00,0.000000,,2013-07-31 04:52:00,